Location: Chuathbaluk
(61.5726°N, 159.2454°W)
Time: 12:19:17
(UTC+00:00)

XW-2F - Pass Details

Date: 23 January 2021
Orbit: 500 x 520 km, 97.5° (Epoch: 01 March)

Event Time Altitude Azimuth Distance (km) Brightness Sun altitude
Rises 03:54:57 0° 177° (S) 2,617 ? -10.8°
Reaches altitude 10° 03:57:04 10° 182° (S) 1,739 ? -11.0°
Maximum altitude 04:00:44 50° 259° (W) 665 ? -11.5°
Drops below altitude 10° 04:04:26 10° 336° (NNW) 1,764 ? -11.9°
Sets 04:06:36 0° 342° (NNW) 2,659 ? -12.1°
